sat.trackr.live / text

‹ back to catalog

STARLINK-35019

NORAD 65513 · 2025-198X

PAYLOAD ACTIVE UNKNOWN

§ Identity

Operator
Country
US
Launch date
2025-09-05
Launch site
AFETR
Launch vehicle
Mass (kg)
RCS (m²)

Purposes: comms

External: N2YO · Heavens-Above · Gunter

§ Orbital elements

Epoch: 2026-05-24T19:21:52.309152Z

Period
93.85 min
Inclination
53.1582°
Eccentricity
0.0000832
Mean motion
15.34401937 rev/d
Perigee alt
462.1 km
Apogee alt
463.3 km
Semi-major
6,840.8 km
B*
7.2575e-4
RAAN
276.7530°
Arg perigee
96.3414°
Mean anomaly
263.7684°
Rev number
4,028

§ Raw data

STARLINK-350191 65513U 25198X   26144.80685543  .00024225  00000+0  72575-3 0  99942 65513  53.1582 276.7530 0000832  96.3414 263.7684 15.34401937 40283

JSON: /api/v1/satellites/65513 · /tle

For live sub-satellite position, see the globe view (requires WebGL).

§ Visibility from observer

Set your observer location to see the next 7 days of passes ≥ 10°. The values pass through the URL so the page stays shareable.

No JS? Fill the form by hand. The geolocation button needs JavaScript.